SDM669 UNKL-UNNT

Flight info

Callsign SDM669
Flight time N/A
Altitude 34000
Route APRUS2F APRUS B926 NATIR NATIR1N
Aircraft A320/M-SDE3FGHIRWY/LB1

Departure

Time 2026-05-01 14:28
Airport Krasnoyarsk International Airport (UNKL)

Arrival

Time N/A
Airport Novosibirsk Tolmachevo Airport (UNNT)
Time Latitude Longitude Altitude Speed Heading
2026-05-01 13:44 56.18106 92.47400 922 ft 0 kts 22°
2026-05-01 14:16 56.18107 92.47400 920 ft 0 kts 22°
2026-05-01 14:16 56.18117 92.47406 919 ft 6 kts 12°
2026-05-01 14:16 56.18180 92.47322 918 ft 15 kts 296°
2026-05-01 14:17 56.18224 92.47132 916 ft 16 kts 291°
2026-05-01 14:17 56.18269 92.46928 913 ft 13 kts 288°
2026-05-01 14:17 56.18274 92.46905 913 ft 1 kts 285°
2026-05-01 14:17 56.18245 92.46836 915 ft 10 kts 205°
2026-05-01 14:18 56.18179 92.46787 918 ft 11 kts 195°
2026-05-01 14:18 56.18109 92.46847 919 ft 13 kts 118°
2026-05-01 14:18 56.18058 92.47057 919 ft 26 kts 113°
2026-05-01 14:18 56.18003 92.47290 922 ft 33 kts 112°
2026-05-01 14:19 56.17886 92.47775 919 ft 31 kts 112°
2026-05-01 14:19 56.17803 92.48132 914 ft 30 kts 112°
2026-05-01 14:19 56.17719 92.48486 908 ft 30 kts 111°
2026-05-01 14:19 56.17632 92.48848 890 ft 34 kts 113°
2026-05-01 14:20 56.17554 92.49174 907 ft 25 kts 113°
2026-05-01 14:20 56.17436 92.49675 912 ft 14 kts 112°
2026-05-01 14:20 56.17377 92.49924 894 ft 25 kts 113°
2026-05-01 14:21 56.17307 92.50214 905 ft 24 kts 113°
2026-05-01 14:21 56.17259 92.50417 928 ft 17 kts 112°
2026-05-01 14:21 56.17182 92.50738 924 ft 33 kts 113°
2026-05-01 14:22 56.17023 92.51417 935 ft 23 kts 112°
2026-05-01 14:22 56.16958 92.51688 935 ft 23 kts 112°
2026-05-01 14:22 56.16906 92.51906 931 ft 14 kts 112°
2026-05-01 14:22 56.16867 92.52010 919 ft 13 kts 150°
2026-05-01 14:23 56.16814 92.52035 925 ft 3 kts 171°
2026-05-01 14:23 56.16806 92.52037 926 ft 0 kts 172°
2026-05-01 14:24 56.16795 92.52040 928 ft 8 kts 172°
2026-05-01 14:24 56.16730 92.52055 933 ft 12 kts 174°
2026-05-01 14:25 56.16670 92.51962 934 ft 14 kts 278°
2026-05-01 14:25 56.16676 92.51925 934 ft 0 kts 289°
2026-05-01 14:27 56.16724 92.51710 933 ft 53 kts 292°
2026-05-01 14:27 56.16965 92.50697 928 ft 119 kts 292°
2026-05-01 14:27 56.17364 92.49030 930 ft 169 kts 293°
2026-05-01 14:28 56.18316 92.45113 2089 ft 175 kts 292°
2026-05-01 14:28 56.18795 92.43097 2747 ft 178 kts 292°
2026-05-01 14:28 56.19286 92.41017 3198 ft 189 kts 292°
2026-05-01 14:28 56.19820 92.38758 3590 ft 205 kts 292°
2026-05-01 14:29 56.20398 92.36315 3970 ft 223 kts 292°
2026-05-01 14:29 56.21021 92.33681 4379 ft 241 kts 292°
2026-05-01 14:30 56.20958 92.24340 6189 ft 273 kts 248°
2026-05-01 14:30 56.20240 92.21161 6733 ft 275 kts 248°
2026-05-01 14:30 56.19531 92.17991 6991 ft 275 kts 249°
2026-05-01 14:31 56.18127 92.11627 7037 ft 274 kts 249°
2026-05-01 14:31 56.17424 92.08428 7155 ft 279 kts 249°
2026-05-01 14:31 56.16710 92.05181 7882 ft 283 kts 249°
2026-05-01 14:31 56.15997 92.01951 8823 ft 281 kts 249°
2026-05-01 14:32 56.15277 91.98691 9649 ft 283 kts 250°
2026-05-01 14:32 56.14554 91.95412 10438 ft 286 kts 250°
2026-05-01 14:32 56.13820 91.92086 10948 ft 299 kts 250°
2026-05-01 14:32 56.13031 91.88507 11308 ft 317 kts 250°
2026-05-01 14:33 56.12201 91.84759 11672 ft 333 kts 250°
2026-05-01 14:33 56.11335 91.80861 12313 ft 339 kts 250°
2026-05-01 14:33 56.10463 91.76954 13073 ft 342 kts 250°
2026-05-01 14:33 56.09584 91.73022 13826 ft 343 kts 251°
2026-05-01 14:34 56.08694 91.69040 14532 ft 346 kts 251°
2026-05-01 14:34 56.07811 91.65092 15204 ft 349 kts 251°
2026-05-01 14:34 56.06899 91.61024 15871 ft 352 kts 252°
2026-05-01 14:34 56.05985 91.56950 16530 ft 355 kts 252°
2026-05-01 14:35 56.05074 91.52898 17193 ft 357 kts 252°
2026-05-01 14:35 56.04141 91.48753 17830 ft 360 kts 252°
2026-05-01 14:35 56.03208 91.44611 18444 ft 363 kts 253°
2026-05-01 14:35 56.02246 91.40350 19051 ft 366 kts 252°
2026-05-01 14:36 56.01291 91.36131 19615 ft 369 kts 253°
2026-05-01 14:36 56.00337 91.31925 20162 ft 373 kts 252°
2026-05-01 14:36 55.99372 91.27584 20711 ft 376 kts 253°
2026-05-01 14:36 55.98615 91.23156 21242 ft 375 kts 261°
2026-05-01 14:37 55.98071 91.18565 21805 ft 377 kts 263°
2026-05-01 14:37 55.97567 91.14002 22345 ft 380 kts 262°
2026-05-01 14:37 55.97046 91.09363 22869 ft 383 kts 262°
2026-05-01 14:37 55.96510 91.04691 23382 ft 385 kts 262°
2026-05-01 14:38 55.95962 91.00007 23866 ft 388 kts 262°
2026-05-01 14:38 55.95407 90.95325 24332 ft 391 kts 262°
2026-05-01 14:38 55.94842 90.90585 24792 ft 394 kts 262°
2026-05-01 14:38 55.94269 90.85822 25335 ft 394 kts 262°
2026-05-01 14:39 55.93693 90.81069 25977 ft 391 kts 262°
2026-05-01 14:39 55.93125 90.76404 26620 ft 388 kts 262°
2026-05-01 14:39 55.92553 90.71722 27278 ft 384 kts 262°
2026-05-01 14:39 55.91987 90.67113 27932 ft 380 kts 262°
2026-05-01 14:40 55.91430 90.62592 28586 ft 376 kts 262°
2026-05-01 14:40 55.90872 90.58070 29247 ft 373 kts 262°
2026-05-01 14:40 55.90308 90.53515 29921 ft 369 kts 262°
2026-05-01 14:40 55.89761 90.49122 30576 ft 364 kts 262°
2026-05-01 14:41 55.89209 90.44799 31232 ft 359 kts 262°
2026-05-01 14:41 55.88658 90.40514 31894 ft 353 kts 263°
2026-05-01 14:41 55.88119 90.36287 32553 ft 346 kts 263°
2026-05-01 14:41 55.87592 90.32149 33212 ft 339 kts 262°
2026-05-01 14:42 55.87081 90.28121 33800 ft 333 kts 263°
2026-05-01 14:42 55.86576 90.24118 34078 ft 334 kts 262°
2026-05-01 14:42 55.86065 90.20054 34096 ft 343 kts 262°
2026-05-01 14:43 55.84992 90.11584 34103 ft 359 kts 262°
2026-05-01 14:43 55.83861 90.02750 34101 ft 376 kts 262°
2026-05-01 14:44 55.82668 89.93512 34101 ft 391 kts 261°
2026-05-01 14:44 55.80853 89.79646 34097 ft 380 kts 262°
2026-05-01 14:45 55.79050 89.65900 34100 ft 379 kts 262°
2026-05-01 14:46 55.77852 89.56857 34099 ft 379 kts 262°
2026-05-01 14:46 55.76030 89.43190 34096 ft 378 kts 262°
2026-05-01 14:47 55.74808 89.34090 34100 ft 378 kts 261°
2026-05-01 14:48 55.72975 89.20513 34101 ft 379 kts 261°
2026-05-01 14:48 55.71116 89.06863 34102 ft 378 kts 261°
2026-05-01 14:49 55.68565 88.88277 34101 ft 402 kts 261°
2026-05-01 14:50 55.65845 88.68500 34100 ft 426 kts 261°
2026-05-01 14:51 55.63703 88.53107 34096 ft 430 kts 260°
2026-05-01 14:52 55.61527 88.37627 34097 ft 431 kts 260°
2026-05-01 14:53 55.59342 88.22185 34098 ft 432 kts 259°
2026-05-01 14:53 55.57885 88.11969 34095 ft 432 kts 259°
2026-05-01 14:54 55.56410 88.01708 34094 ft 432 kts 259°
2026-05-01 14:54 55.54926 87.91449 34088 ft 432 kts 259°
2026-05-01 14:55 55.53419 87.81098 34085 ft 432 kts 259°
2026-05-01 14:55 55.51917 87.70837 34087 ft 432 kts 259°
2026-05-01 14:56 55.50414 87.60639 34088 ft 432 kts 259°
2026-05-01 14:56 55.48891 87.50416 34095 ft 431 kts 258°
2026-05-01 14:57 55.47354 87.40253 34090 ft 431 kts 258°
2026-05-01 14:57 55.45032 87.24953 34079 ft 431 kts 257°
2026-05-01 14:58 55.43470 87.14722 34075 ft 432 kts 257°
2026-05-01 14:58 55.41917 87.04609 34067 ft 431 kts 257°
2026-05-01 14:59 55.40348 86.94477 34065 ft 431 kts 257°
2026-05-01 14:59 55.38765 86.84307 34065 ft 431 kts 257°
2026-05-01 15:00 55.36378 86.69079 34057 ft 433 kts 257°
2026-05-01 15:01 55.34774 86.58929 34054 ft 433 kts 257°
2026-05-01 15:01 55.33167 86.48815 34054 ft 433 kts 257°
2026-05-01 15:02 55.31538 86.38617 34052 ft 433 kts 257°
2026-05-01 15:02 55.29919 86.28535 34054 ft 433 kts 256°
2026-05-01 15:03 55.28294 86.18395 34054 ft 433 kts 257°
2026-05-01 15:03 55.27062 86.08097 34052 ft 431 kts 262°
2026-05-01 15:04 55.26410 85.97708 34053 ft 430 kts 266°
2026-05-01 15:04 55.25908 85.87326 34052 ft 430 kts 266°
2026-05-01 15:05 55.25397 85.76885 34051 ft 430 kts 266°
2026-05-01 15:05 55.24881 85.66509 34048 ft 430 kts 266°
2026-05-01 15:06 55.24355 85.56129 34047 ft 430 kts 266°
2026-05-01 15:06 55.23821 85.45781 34045 ft 429 kts 266°
2026-05-01 15:07 55.23276 85.35362 34041 ft 431 kts 266°
2026-05-01 15:07 55.22721 85.24935 33950 ft 432 kts 265°
2026-05-01 15:07 55.22442 85.19728 33676 ft 432 kts 265°
2026-05-01 15:08 55.22158 85.14501 33376 ft 433 kts 265°
2026-05-01 15:08 55.21874 85.09288 32945 ft 433 kts 265°
2026-05-01 15:08 55.21587 85.04069 32410 ft 434 kts 265°
2026-05-01 15:08 55.21297 84.98844 31803 ft 436 kts 265°
2026-05-01 15:09 55.21002 84.93583 31133 ft 438 kts 265°
2026-05-01 15:09 55.20703 84.88300 30457 ft 439 kts 265°
2026-05-01 15:09 55.20400 84.82991 29744 ft 441 kts 264°
2026-05-01 15:09 55.20089 84.77724 29031 ft 438 kts 263°
2026-05-01 15:10 55.19627 84.72466 28304 ft 435 kts 259°
2026-05-01 15:10 55.18161 84.62399 27110 ft 424 kts 252°
2026-05-01 15:10 55.17222 84.57543 26623 ft 417 kts 252°
2026-05-01 15:11 55.16287 84.52776 26139 ft 411 kts 251°
2026-05-01 15:11 55.14443 84.43430 25121 ft 402 kts 251°
2026-05-01 15:11 55.13547 84.38902 24657 ft 397 kts 251°
2026-05-01 15:12 55.12643 84.34343 24185 ft 393 kts 250°
2026-05-01 15:12 55.10880 84.25455 23278 ft 385 kts 250°
2026-05-01 15:12 55.10001 84.21044 22825 ft 382 kts 250°
2026-05-01 15:13 55.07423 84.08187 21538 ft 371 kts 250°
2026-05-01 15:14 55.05726 83.99763 20650 ft 366 kts 250°
2026-05-01 15:14 55.04893 83.95647 20203 ft 363 kts 250°
2026-05-01 15:14 55.03221 83.87412 19313 ft 358 kts 250°
2026-05-01 15:15 55.01569 83.79344 18458 ft 352 kts 250°
2026-05-01 15:15 54.99905 83.71321 18022 ft 355 kts 250°
2026-05-01 15:16 54.98224 83.63251 16926 ft 364 kts 250°
2026-05-01 15:16 54.96503 83.55016 15770 ft 361 kts 250°
2026-05-01 15:17 54.94799 83.46892 14808 ft 354 kts 250°
2026-05-01 15:18 54.92328 83.35153 13995 ft 341 kts 250°
2026-05-01 15:18 54.91514 83.31293 13993 ft 342 kts 249°
2026-05-01 15:19 54.89037 83.19653 13977 ft 342 kts 249°
2026-05-01 15:19 54.87380 83.11964 13968 ft 342 kts 250°
2026-05-01 15:19 54.86843 83.07987 13822 ft 341 kts 264°
2026-05-01 15:20 54.87365 82.99706 12350 ft 354 kts 279°
2026-05-01 15:20 54.87839 82.95565 11718 ft 354 kts 279°
2026-05-01 15:20 54.88313 82.91391 11162 ft 352 kts 279°
2026-05-01 15:21 54.88779 82.87200 10623 ft 350 kts 279°
2026-05-01 15:21 54.89225 82.83124 10197 ft 345 kts 278°
2026-05-01 15:21 54.89660 82.79089 9778 ft 339 kts 278°
2026-05-01 15:21 54.90087 82.75097 9387 ft 334 kts 278°
2026-05-01 15:22 54.90970 82.67297 8646 ft 325 kts 286°
2026-05-01 15:22 54.92096 82.63934 8262 ft 326 kts 309°
2026-05-01 15:22 54.93520 82.60938 7855 ft 322 kts 300°
2026-05-01 15:23 54.94294 82.57391 7446 ft 314 kts 275°
2026-05-01 15:23 54.94265 82.53644 7047 ft 304 kts 261°
2026-05-01 15:23 54.93996 82.50137 6657 ft 291 kts 259°
2026-05-01 15:23 54.93701 82.46697 6262 ft 281 kts 258°
2026-05-01 15:24 54.93422 82.43424 6030 ft 274 kts 258°
2026-05-01 15:24 54.93146 82.40136 6007 ft 276 kts 258°
2026-05-01 15:24 54.92871 82.36804 6008 ft 276 kts 258°
2026-05-01 15:24 54.92604 82.33530 6016 ft 276 kts 257°
2026-05-01 15:25 54.92085 82.30338 6009 ft 271 kts 243°
2026-05-01 15:25 54.91305 82.27397 6010 ft 270 kts 239°
2026-05-01 15:25 54.90459 82.24468 5736 ft 273 kts 238°
2026-05-01 15:25 54.89570 82.21523 5294 ft 275 kts 238°
2026-05-01 15:26 54.88682 82.18602 4924 ft 274 kts 238°
2026-05-01 15:26 54.87809 82.15714 4553 ft 272 kts 238°
2026-05-01 15:26 54.86940 82.12826 4175 ft 267 kts 238°
2026-05-01 15:26 54.86103 82.10017 4009 ft 262 kts 238°
2026-05-01 15:27 54.85363 82.07101 3997 ft 268 kts 252°
2026-05-01 15:27 54.85350 82.03881 3999 ft 277 kts 281°
2026-05-01 15:27 54.86217 82.00869 4002 ft 284 kts 309°
2026-05-01 15:28 54.89686 81.97755 4005 ft 288 kts 346°
2026-05-01 15:28 54.91623 81.96965 4001 ft 288 kts 348°
2026-05-01 15:28 54.93593 81.96304 3993 ft 287 kts 357°
2026-05-01 15:29 54.97120 81.98672 3699 ft 275 kts 53°
2026-05-01 15:29 54.98009 82.01516 3326 ft 264 kts 77°
2026-05-01 15:29 54.98830 82.07668 2588 ft 261 kts 83°
2026-05-01 15:30 54.99539 82.13789 2009 ft 252 kts 83°
2026-05-01 15:31 54.99349 82.25098 1997 ft 213 kts 116°
2026-05-01 15:31 54.98452 82.29653 1996 ft 190 kts 104°
2026-05-01 15:32 54.98440 82.34261 2094 ft 185 kts 88°
2026-05-01 15:32 54.98866 82.38315 1987 ft 152 kts 88°
2026-05-01 15:33 54.99351 82.43628 2017 ft 148 kts 89°
2026-05-01 15:34 54.99785 82.48587 1878 ft 136 kts 90°